Weather History for Oslo Airport, Norway

Change the Weather History Date:

Monday, February 4, 2013

  Actual Average Record
Temperature  
Mean Temperature 24 °F -  
Max Temperature 30 °F 30 °F 48 °F (2004)
Min Temperature 19 °F 18 °F -11 °F (2001)
Degree Days  
Heating Degree Days 40    
Moisture  
Dew Point 24 °F    
Average Humidity 94    
Maximum Humidity 100    
Minimum Humidity 86    
Precipitation  
Precipitation 0.20 in 0.07 in - ()
Sea Level Pressure  
Sea Level Pressure 29.02 in    
Wind  
Wind Speed 2 mph ()    
Max Wind Speed 8 mph    
Max Gust Speed -    
Visibility 2.7 miles    
Events Fog , Snow    
Averages and records for this station are not official NWS values.
T = Trace of Precipitation, MM = Missing Value Source: Averaged Metar Reports

Daily Weather History Graph

Daily Weather History Graph

Search for Another Location

Airport:

Trip Planner

Search our weather history database for the weather conditions in past years. The results will help you decide how hot, cold, wet, or windy it might be!

Date:

Astronomy

Feb. 04, 2013 Rise Set
Actual Time 8:23 AM CET 4:37 PM CET
Civil Twilight 7:36 AM CET 5:23 PM CET
Nautical Twilight 6:45 AM CET 6:14 PM CET
Astronomical Twilight 5:57 AM CET 7:03 PM CET
Moon 2:58 AM CET (2/4) 10:24 AM CET (2/4)
Length of Visible Light 9h 47m
Length of Day
8h 13m
Last Quarter, 40% of the Moon is Illuminated
Feb 4
Last Quarter
Feb 10
New
Feb 17
First Quarter
Feb 25
Full
Mar 4
Last Quarter

Hourly Weather History & Observations

Time (CET) Temp. Windchill Dew Point Humidity Pressure Visibility Wind Dir Wind Speed Gust Speed Precip Events Conditions
12:12 AM 19.4 °F - 17.6 °F 93% 29.33 in 4.3 mi Calm Calm - N/A Snow Light Snow
12:40 AM 19.4 °F - 17.6 °F 93% 29.33 in 5.6 mi Calm Calm - N/A Snow Light Snow
1:00 AM 20 °F - 19 °F 93%  in 6 mi North 2.2 mph - - Snow Light Snow
1:17 AM 19.4 °F - 17.6 °F 93% 29.33 in 6.2 mi Calm Calm - N/A Snow Light Snow
1:41 AM 21.2 °F - 19.4 °F 93% 29.30 in 2.5 mi Calm Calm - N/A Snow Light Snow
2:13 AM 21.2 °F - 19.4 °F 93% 29.30 in 1.6 mi Calm Calm - N/A Snow Light Snow
2:44 AM 21.2 °F - 19.4 °F 93% 29.27 in - Calm Calm - N/A Snow Light Snow
3:10 AM 21.2 °F - 19.4 °F 93% 29.27 in 3.1 mi Calm Calm - N/A Snow Light Snow
3:40 AM 21.2 °F - 19.4 °F 93% 29.27 in 4.3 mi Calm Calm - N/A   Overcast
4:10 AM 21.2 °F - 19.4 °F 93% 29.24 in - Calm Calm - N/A Snow Light Snow
4:41 AM 21.2 °F - 19.4 °F 93% 29.24 in 0.6 mi Calm Calm - N/A Fog Light Freezing Fog
5:12 AM 23.0 °F - 21.2 °F 93% 29.21 in 0.7 mi Variable 1.2 mph - N/A Snow Light Snow
5:42 AM 23.0 °F - 21.2 °F 93% 29.18 in 1.2 mi Variable 2.3 mph - N/A Fog , Snow Light Snow
6:12 AM 23.0 °F - 21.2 °F 93% 29.18 in - Calm Calm - N/A Snow Light Snow
6:40 AM 24.8 °F - 23.0 °F 93% 29.15 in 3.1 mi Calm Calm - N/A Snow Light Snow
7:00 AM 27 °F - 26 °F 96%  in 3 mi SSE 4.5 mph - - Snow Light Snow
7:12 AM 24.8 °F - 24.8 °F 100% 29.15 in - SSW 2.3 mph - N/A Snow Light Snow
7:41 AM 26.6 °F - 24.8 °F 93% 29.12 in 1.6 mi South 2.3 mph - N/A Snow Light Snow
8:10 AM 24.8 °F 20.5 °F 24.8 °F 100% 29.12 in 1.3 mi SSE 3.5 mph - N/A Snow Light Snow
8:41 AM 26.6 °F 20.0 °F 26.6 °F 100% 29.09 in 0.9 mi South 5.8 mph - N/A Snow Light Snow
9:12 AM 28.4 °F 21.2 °F 26.6 °F 93% 29.06 in 1.2 mi South 6.9 mph - N/A Snow Light Snow
9:41 AM 28.4 °F 22.2 °F 26.6 °F 93% 29.06 in 1.0 mi South 5.8 mph - N/A Snow Light Snow
10:11 AM 26.6 °F 21.2 °F 26.6 °F 100% 29.03 in 0.8 mi SSW 4.6 mph - N/A Snow Light Snow
11:40 AM 30.2 °F 23.4 °F 28.4 °F 93% 28.97 in 0.9 mi SSE 6.9 mph - N/A Snow Light Snow
12:10 PM 30.2 °F 22.6 °F 28.4 °F 93% 28.94 in 1.2 mi SSE 8.1 mph - N/A Snow Light Snow
12:40 PM 30.2 °F 24.3 °F 28.4 °F 93% 28.94 in 1.1 mi SSE 5.8 mph - N/A Snow Light Snow
1:00 PM 30 °F - 29 °F 96%  in 1 mi SSE 2.2 mph - - Snow Light Snow
1:10 PM 30.2 °F 25.4 °F 28.4 °F 93% 28.91 in 0.6 mi SSE 4.6 mph - N/A Fog , Snow Snow
1:41 PM 30.2 °F - 28.4 °F 93% 28.88 in 0.7 mi Variable 2.3 mph - N/A Snow Snow
2:11 PM 30.2 °F - 28.4 °F 93% 28.88 in 1.0 mi Variable 1.2 mph - N/A Snow Light Snow
2:41 PM 30.2 °F - 30.2 °F 100% 28.85 in 1.0 mi Calm Calm - N/A Snow Snow
3:11 PM 30.2 °F - 28.4 °F 93% 28.85 in 1.2 mi Calm Calm - N/A Snow Light Snow
3:41 PM 30.2 °F - 28.4 °F 93% 28.85 in 1.1 mi NNW 1.2 mph - N/A Snow Snow
4:11 PM 30.2 °F - 28.4 °F 93% 28.85 in 1.0 mi NNW 2.3 mph - N/A Snow Snow
4:40 PM 28.4 °F - 28.4 °F 100% 28.85 in 1.5 mi North 2.3 mph - N/A Snow Light Snow
5:11 PM 28.4 °F - 28.4 °F 100% 28.85 in - NNW 2.3 mph - N/A Snow Light Snow
5:40 PM 28.4 °F - 28.4 °F 100% 28.85 in - NW 2.3 mph - N/A Snow Light Snow
6:11 PM 28.4 °F - 28.4 °F 100% 28.85 in 6.2 mi Variable 2.3 mph - N/A   Mostly Cloudy
6:41 PM 28.4 °F - 26.6 °F 93% 28.85 in 6.2 mi Variable 2.3 mph - N/A   Scattered Clouds
7:00 PM 29 °F - 28 °F 92%  in 12 mi NW 2.2 mph - -   Partly Cloudy
7:10 PM 26.6 °F - 26.6 °F 100% 28.85 in - Variable 2.3 mph - N/A   Clear
7:40 PM 26.6 °F - 23.0 °F 86% 28.85 in - Variable 2.3 mph - N/A   Clear
8:10 PM 24.8 °F 20.5 °F 23.0 °F 93% 28.85 in - North 3.5 mph - N/A   Clear
8:40 PM 24.8 °F 19.1 °F 21.2 °F 86% 28.85 in - NW 4.6 mph - N/A   Clear
9:10 PM 24.8 °F 20.5 °F 23.0 °F 93% 28.85 in - NNW 3.5 mph - N/A   Clear
9:40 PM 23.0 °F - 19.4 °F 86% 28.85 in - Variable 1.2 mph - N/A   Clear
10:13 PM 21.2 °F 14.9 °F 19.4 °F 93% 28.85 in - NW 4.6 mph - N/A   Clear
10:40 PM 19.4 °F 14.3 °F 17.6 °F 93% 28.85 in - NNW 3.5 mph - N/A   Clear
11:12 PM 19.4 °F 12.8 °F 15.8 °F 86% 28.85 in 6.2 mi North 4.6 mph - N/A   Unknown
11:40 PM 19.4 °F - 17.6 °F 93% 28.88 in 5.0 mi North 1.2 mph - N/A   Mostly Cloudy